Weather History for Pamplona, Spain

Change the Weather History Date:

Saturday, September 21, 2013

  Actual Average Record
Temperature  
Mean Temperature 64 °F -  
Max Temperature 78 °F 66 °F 86 °F (2003)
Min Temperature 51 °F 50 °F 42 °F (2000)
Growing Degree Days 14 (Base 50)    
Moisture  
Dew Point 49 °F    
Average Humidity 58    
Maximum Humidity 88    
Minimum Humidity 27    
Precipitation  
Precipitation 0.00 in - - ()
Sea Level Pressure  
Sea Level Pressure 30.26 in    
Wind  
Wind Speed 5 mph ()    
Max Wind Speed 15 mph    
Max Gust Speed -    
Visibility 6.2 miles    
Events      
Averages and records for this station are not official NWS values.
T = Trace of Precipitation, MM = Missing Value Source: Averaged Metar Reports

Daily Weather History Graph

Daily Weather History Graph

Search for Another Location

Airport:

Trip Planner

Search our weather history database for the weather conditions in past years. The results will help you decide how hot, cold, wet, or windy it might be!

Date:

Astronomy

Sep. 21, 2013 Rise Set
Actual Time 7:52 AM CEST 8:05 PM CEST
Civil Twilight 7:24 AM CEST 8:33 PM CEST
Nautical Twilight 6:51 AM CEST 9:06 PM CEST
Astronomical Twilight 6:17 AM CEST 9:40 PM CEST
Moon 9:02 PM CEST (9/21) 9:59 AM CEST (9/21)
Length of Visible Light 13h 09m
Length of Day
12h 12m
Waning Gibbous, 95% of the Moon is Illuminated
Sep 21
Waning Gibbous
Sep 27
Last Quarter
Oct 5
New
Oct 12
First Quarter
Oct 19
Full

Hourly Weather History & Observations

Time (CEST) Temp. Dew Point Humidity Pressure Visibility Wind Dir Wind Speed Gust Speed Precip Events Conditions
12:00 AM 60.8 °F 55.4 °F 82% 30.24 in 6.2 mi NW 4.6 mph - N/A   Partly Cloudy
5:30 AM 55.4 °F 51.8 °F 88% 30.24 in - Calm Calm - N/A   Clear
6:00 AM 53.6 °F 50.0 °F 88% 30.24 in - SE 1.2 mph - N/A   Clear
6:30 AM 57.2 °F 50.0 °F 77% 30.24 in - Calm Calm - N/A   Clear
7:00 AM 53.6 °F 50.0 °F 88% 30.24 in - Calm Calm - N/A   Clear
7:30 AM 51.8 °F 48.2 °F 88% 30.24 in - NE 1.2 mph - N/A   Clear
8:00 AM 53.6 °F 50.0 °F 88% 30.24 in - Calm Calm - N/A   Clear
8:30 AM 55.4 °F 50.0 °F 82% 30.27 in - ENE 3.5 mph - N/A   Clear
9:00 AM 57.2 °F 51.8 °F 82% 30.27 in - Variable 2.3 mph - N/A   Clear
9:30 AM 59.0 °F 51.8 °F 77% 30.27 in - SSE 2.3 mph - N/A   Clear
10:00 AM 62.6 °F 51.8 °F 68% 30.27 in - Calm Calm - N/A   Clear
10:30 AM 64.4 °F 48.2 °F 56% 30.27 in - West 1.2 mph - N/A   Clear
11:00 AM 68.0 °F 46.4 °F 46% 30.27 in - NNW 6.9 mph - N/A   Clear
11:30 AM 71.6 °F 44.6 °F 38% 30.27 in - NNW 11.5 mph - N/A   Clear
12:00 PM 71.6 °F 39.2 °F 31% 30.27 in - NW 11.5 mph - N/A   Clear
12:30 PM 73.4 °F 37.4 °F 27% 30.27 in - NNW 12.7 mph - N/A   Clear
1:00 PM 73.4 °F 37.4 °F 27% 30.27 in - NW 8.1 mph - N/A   Clear
1:30 PM 75.2 °F 39.2 °F 27% 30.24 in - NW 10.4 mph - N/A   Clear
2:00 PM 75.2 °F 39.2 °F 27% 30.24 in - NW 13.8 mph - N/A   Clear
2:30 PM 77.0 °F 42.8 °F 29% 30.24 in - NW 13.8 mph - N/A   Clear
3:00 PM 77.0 °F 44.6 °F 32% 30.24 in - NW 13.8 mph - N/A   Clear
3:30 PM 78.8 °F 46.4 °F 32% 30.24 in - NNW 13.8 mph - N/A   Clear
4:00 PM 78.8 °F 44.6 °F 30% 30.24 in - North 13.8 mph - N/A   Clear
4:30 PM 77.0 °F 48.2 °F 36% 30.24 in - NW 13.8 mph - N/A   Clear
5:00 PM 75.2 °F 48.2 °F 38% 30.24 in - NW 15.0 mph - N/A   Clear
5:30 PM 75.2 °F 48.2 °F 38% 30.24 in - NW 13.8 mph - N/A   Clear
6:00 PM 73.4 °F 50.0 °F 44% 30.24 in - NW 15.0 mph - N/A   Clear
6:30 PM 73.4 °F 51.8 °F 47% 30.24 in - NW 13.8 mph - N/A   Clear
7:00 PM 71.6 °F 53.6 °F 53% 30.24 in - NW 12.7 mph - N/A   Clear
7:30 PM 69.8 °F 53.6 °F 56% 30.24 in - NW 10.4 mph - N/A   Clear
8:00 PM 68.0 °F 55.4 °F 64% 30.24 in - NW 9.2 mph - N/A   Clear
8:30 PM 66.2 °F 55.4 °F 68% 30.27 in - NW 9.2 mph - N/A   Clear
9:00 PM 64.4 °F 55.4 °F 73% 30.27 in - NW 8.1 mph - N/A   Clear
9:30 PM 62.6 °F 55.4 °F 77% 30.27 in - NW 4.6 mph - N/A   Clear
10:00 PM 62.6 °F 55.4 °F 77% 30.30 in - NW 3.5 mph - N/A   Clear
10:30 PM 60.8 °F 55.4 °F 82% 30.30 in - WNW 3.5 mph - N/A   Clear
11:00 PM 60.8 °F 53.6 °F 77% 30.30 in - WNW 2.3 mph - N/A   Clear
11:30 PM 60.8 °F 53.6 °F 77% 30.30 in - West 2.3 mph - N/A   Clear